Location: Newark
(40.8000°N, 14.5000°E)
Time: 23:26:14
(UTC+00:00)

Tiangong 2 - Visible Passes

Search period start: 19 July 2019 00:00
Search period end: 29 July 2019 00:00
Orbit: 185 x 376 km, 42.8° (Epoch: 19 July)

Date Brightness Start Highest point End Pass type
(mag) Time Alt. Az. Time Alt. Az. Time Alt. Az.
19 Jul 1.3 20:08:29 10° W 20:11:31 49° SSW 20:12:00 44° S visible
20 Jul 2.1 20:09:43 10° W 20:12:31 30° SSW 20:12:45 30° SSW visible
21 Jul 2.9 20:10:47 10° W 20:13:03 19° SSW 20:13:09 19° SSW visible
22 Jul 3.6 20:12:06 10° WSW 20:13:07 11° SW 20:13:14 11° SW visible
